Home   Weather   Judenburg   Past weeks

Flag for Austria Past Weather in Judenburg, Styria, Austria — Yesterday and Last 2 Weeks

Now
54 °F

Broken clouds.


Feels Like: 54 °F
Forecast: 45 / 67 °F
Wind: 2 mph from Southwest

Location: Zeltweg

Current Time: Aug 20, 2017 at 9:51:37 am

Latest Report: Aug 20, 2017 at 8:50 am


Visibility: 9 mi

Pressure: 30.18 "Hg (27.62 "Hg at 739m altitude)

Humidity: 94%

Dew Point: 52 °F

Location of JudenburgLocation

Past Weather in Judenburg — Graph

°F

Judenburg Temperature Yesterday

Maximum temperature yesterday: 64 °F (at 8:20 am)
Minimum temperature yesterday: 55 °F (at 7:50 pm)
Average temperature yesterday: 61 °F

High & Low Weather Summary for the Past Weeks

 TemperatureHumidityPressure
High84 °F (Aug 9, 4:20 pm)100% (Aug 6, 10:20 am)30.27 "Hg (Aug 6, 10:20 am)
Low50 °F (Aug 12, 4:50 am)33% (Aug 18, 3:20 pm)29.89 "Hg (Aug 11, 9:50 am)
Average67 °F72%30.11 "Hg
* Reported Aug 5 8:20 am — Aug 20 8:20 am, Judenburg. Weather by CustomWeather, © 2017

Note: Actual official high and low records may vary slightly from our data, if they occured in-between our weather recording intervals... More about our weather records

Advertising

Judenburg Weather History for the Previous 24 Hours

Scroll right to see more
 ConditionsComfort  
Time TempWeatherWind HumidityBarometerVisibility
8:20 am
Sun, Aug 20
54 °FBroken clouds.2 mph88%30.18 "Hg9 mi
7:50 am54 °FBroken clouds.2 mph94%30.18 "Hg9 mi
6:50 am54 °FScattered showers. Broken clouds.2 mph94%30.15 "Hg9 mi
5:50 am54 °FPartly cloudy.1 mph88%30.15 "Hg6 mi
4:50 am54 °FSprinkles. Mostly cloudy.3 mph94%30.15 "Hg6 mi
1:50 am54 °FThunderstorms. Partly cloudy.5 mph94%30.18 "Hg12 mi
9:50 pm
Sat, Aug 19
55 °FRain showers. Partly cloudy.2 mph94%30.18 "Hg5 mi
8:50 pm55 °FSprinkles. Partly cloudy.1 mph94%30.15 "Hg5 mi
7:50 pm55 °FThunderstorms. More clouds than sun.5 mph94%30.15 "Hg3 mi
6:50 pm59 °FRain showers. Mostly cloudy.7 mph88%30.12 "Hg3 mi
6:20 pm59 °FRain showers. Cloudy.10 mph94%30.12 "Hg3 mi
5:50 pm59 °FRain showers. Mostly cloudy.8 mph94%30.09 "Hg3 mi
5:20 pm59 °FRain showers. More clouds than sun.10 mph94%30.12 "Hg3 mi
4:50 pm59 °FThunderstorms. Broken clouds.9 mph94%30.09 "Hg3 mi
4:20 pm61 °FRain showers. Broken clouds.14 mph88%30.09 "Hg3 mi
3:50 pm61 °FPartly sunny.12 mph88%30.09 "Hg6 mi
3:20 pm63 °FBroken clouds.10 mph88%30.12 "Hg6 mi
2:50 pm63 °FBroken clouds.8 mph83%30.12 "Hg6 mi
2:20 pm61 °FLight rain. More clouds than sun.9 mph94%30.12 "Hg6 mi
1:50 pm63 °FRain. More clouds than sun.6 mph88%30.12 "Hg5 mi
1:20 pm63 °FRain. More clouds than sun.2 mph88%30.12 "Hg5 mi
12:50 pm64 °FRain. Mostly cloudy.2 mph83%30.12 "Hg5 mi
12:20 pm64 °FSprinkles. More clouds than sun.2 mph83%30.12 "Hg9 mi
11:50 am64 °FSprinkles. Partly sunny.3 mph88%30.12 "Hg6 mi
11:20 am64 °FPartly sunny.5 mph88%30.12 "Hg6 mi
10:50 am63 °FBroken clouds.2 mph88%30.12 "Hg9 mi
10:20 am64 °FSprinkles. Broken clouds.6 mph88%30.12 "Hg6 mi
9:50 am63 °FRain showers. Broken clouds.5 mph94%30.12 "Hg5 mi
9:20 am64 °FSprinkles. Broken clouds.5 mph83%30.09 "Hg9 mi
Weather by CustomWeather, © 2017

See weather overviewHow to use our weather pages